CW2640 Weather Reports


Display with metric or nautical units.
time (UTC)temp
F
wind
direction
speed
MPH
gust
MPH
rain 1hr
in
rain 24hr
in
rain mn
in
humidity
%
barometer
mb
20260507085244 56 80 0.0 0.0 0.00 0.33 0.33 99 1012.4
20260507082241 57 80 0.0 0.0 0.00 0.33 0.33 99 1012.4
20260507075236 57 80 0.0 0.0 0.00 0.33 0.33 99 1012.0
20260507072236 59 80 0.0 0.0 0.00 0.33 0.33 99 1011.7
20260507065235 60 80 0.0 0.0 1.02 0.33 0.33 99 1011.6
20260507062231 62 80 0.0 0.0 0.00 0.16 0.16 99 1012.3
20260507055230 62 80 0.0 0.0 0.42 0.07 0.07 99 1012.9
20260507052225 63 80 0.0 0.0 0.00 0.00 0.00 99 1013.2
20260507045223 64 80 0.0 0.0 0.00 0.67 0.67 99 1012.7
20260507042219 64 80 0.0 0.0 0.00 0.67 0.67 99 1012.7
20260507035216 64 80 0.0 0.0 0.00 0.67 0.67 99 1013.0
20260507032211 64 80 0.0 0.0 0.00 0.67 0.67 99 1013.0
20260507025211 64 80 0.0 0.0 0.00 0.67 0.67 99 1012.0
20260507022209 64 80 0.0 0.0 0.00 0.67 0.67 99 1012.4
20260507015209 64 80 0.0 0.0 0.00 0.67 0.67 99 1012.9
20260507012206 64 80 0.0 0.0 0.00 0.67 0.67 99 1012.6
20260507005206 64 80 0.0 0.0 0.00 0.67 0.67 99 1012.2
20260507002201 64 80 0.0 0.0 0.00 0.67 0.67 99 1013.3
20260506235157 69 80 0.0 0.0 0.00 0.67 0.67 99 1012.3
20260506232154 70 80 0.0 0.0 0.12 0.65 0.65 99 1012.0
20260506225154 75 80 0.0 0.0 0.00 0.00 0.00 94 1011.2
20260506222150 75 81 0.0 0.0 0.00 0.00 0.00 92 1010.9
20260506215148 75 82 0.0 0.0 0.00 0.00 0.00 92 1011.4
20260506212147 75 83 0.0 0.0 0.00 0.00 0.00 90 1011.3
20260506205143 76 83 0.0 0.0 0.00 0.00 0.00 89 1011.3
20260506202138 78 83 0.0 0.0 0.00 0.00 0.00 87 1011.5
20260506195136 77 81 0.0 0.0 0.00 0.00 0.00 87 1012.0
20260506192136 75 82 0.0 0.0 0.00 0.00 0.00 92 1012.8
20260506185134 76 82 0.0 0.0 0.00 0.00 0.00 90 1013.2
20260506182133 76 83 0.0 0.0 0.00 0.00 0.00 89 1013.3
20260506175131 76 82 0.0 0.0 0.00 0.00 0.00 88 1013.1
20260506172126 76 82 0.0 0.0 0.00 0.00 0.00 85 1013.6
20260506165122 77 80 0.0 0.0 0.00 0.00 0.00 86 1013.4
20260506162117 75 80 0.0 0.0 0.00 0.00 0.00 86 1013.6
20260506155116 73 80 0.0 0.0 0.00 0.00 0.00 90 1013.8
20260506151445 72 80 0.0 0.0 0.00 0.00 0.00 90 1013.9
20260506144443 71 80 0.0 0.0 0.00 0.00 0.00 92 1013.7
20260506141441 71 80 0.0 0.0 0.00 0.00 0.00 92 1013.9
20260506134440 70 80 0.0 0.0 0.00 0.00 0.00 93 1013.9
20260506131439 68 80 0.0 0.0 0.00 0.00 0.00 95 1013.9
20260506124435 68 80 0.0 0.0 0.00 0.00 0.00 96 1013.8
20260506121431 68 80 0.0 0.0 0.00 0.00 0.00 96 1013.4
20260506114428 68 88 0.0 0.0 0.00 0.00 0.00 94 1012.9
20260506111425 68 101 0.0 0.0 0.00 0.00 0.00 92 1012.6
20260506104425 68 129 0.0 0.0 0.00 0.00 0.00 90 1012.4
20260506101425 69 147 0.0 0.0 0.00 0.00 0.00 89 1011.8
20260506094424 69 157 0.0 0.0 0.00 0.00 0.00 88 1011.8
20260506091420 69 152 0.0 0.0 0.00 0.00 0.00 87 1011.9